K1CSF Weather Reports


time (UTC)temp
C
wind
direction
speed
KPH
gust
KPH
rain 1hr
cm
rain 24hr
cm
rain mn
cm
humidity
%
barometer
mb
20260504081548 5 171 1.6 4.8 0.00 0.03 0.00 73 1009.1
20260504044529 4 193 3.2 4.8 0.00 0.03 0.00 56 1009.7
20260504043025 5 293 1.6 4.8 0.00 0.03 0.00 54 1009.8
20260504041538 5 317 1.6 4.8 0.00 0.03 0.00 53 1009.9
20260504040023 5 338 3.2 11.3 0.00 0.03 0.00 53 1009.8
20260504034522 5 360 3.2 6.4 0.00 0.03 0.03 54 1009.9
20260504033020 5 315 1.6 4.8 0.00 0.03 0.03 56 1009.8
20260504031520 5 28 1.6 4.8 0.00 0.03 0.03 56 1009.8
20260504030020 4 26 1.6 4.8 0.00 0.03 0.03 59 1010.0
20260504024518 3 24 1.6 6.4 0.00 0.03 0.03 60 1010.2
20260504023018 4 19 1.6 4.8 0.00 0.03 0.03 59 1010.2
20260504021516 4 19 1.6 4.8 0.00 0.03 0.03 58 1010.2
20260504020031 5 17 1.6 6.4 0.00 0.03 0.03 56 1010.1
20260504014520 5 355 1.6 6.4 0.00 0.03 0.03 55 1010.2
20260504013015 5 355 1.6 3.2 0.00 0.03 0.03 56 1010.2
20260504011515 5 319 1.6 3.2 0.00 0.03 0.03 56 1010.1
20260504010014 5 319 1.6 3.2 0.00 0.03 0.03 57 1009.9
20260504004515 5 319 1.6 3.2 0.00 0.03 0.03 56 1009.9
20260504003013 5 319 0.0 4.8 0.00 0.03 0.03 56 1009.8
20260504001522 5 319 1.6 4.8 0.00 0.03 0.03 56 1009.7
20260504000013 6 255 0.0 1.6 0.00 0.03 0.03 55 1009.7
20260503234512 6 255 0.0 4.8 0.00 0.05 0.03 54 1009.7
20260503233017 6 254 1.6 3.2 0.00 0.05 0.03 52 1009.5
20260503231511 7 259 1.6 9.7 0.00 0.05 0.03 51 1009.6
20260503230028 7 279 6.4 20.9 0.00 0.05 0.03 49 1009.7
20260503224509 7 297 3.2 14.5 0.00 0.05 0.03 50 1009.7
20260503223008 7 325 8.0 22.5 0.00 0.05 0.03 50 1009.6
20260503221508 7 332 8.0 19.3 0.00 0.05 0.03 49 1009.6
20260503220008 7 336 9.7 20.9 0.00 0.05 0.03 49 1009.7
20260503214517 7 321 9.7 19.3 0.00 0.05 0.03 49 1009.7
20260503213004 7 286 9.7 19.3 0.00 0.05 0.03 52 1009.7
20260503211503 6 323 8.0 20.9 0.00 0.05 0.03 52 1009.6
20260503210003 6 306 9.7 25.7 0.00 0.05 0.03 54 1009.7
20260503204501 6 5 12.9 24.1 0.00 0.05 0.03 54 1009.5
20260503203003 6 295 11.3 25.7 0.00 0.05 0.03 56 1009.7
20260503201601 6 264 11.3 24.1 0.00 0.05 0.03 56 1009.7
20260503200100 6 321 12.9 27.4 0.00 0.05 0.03 56 1009.8
20260503194609 6 355 8.0 19.3 0.00 0.05 0.03 54 1009.7
20260503193115 6 316 11.3 22.5 0.00 0.05 0.03 56 1009.9
20260503191611 6 344 11.3 27.4 0.00 0.05 0.03 56 1009.9
20260503190054 6 318 14.5 24.1 0.00 0.05 0.03 55 1010.1
20260503184553 5 348 11.3 24.1 0.00 0.05 0.03 56 1010.2
20260503183053 5 335 14.5 37.0 0.00 0.05 0.03 58 1010.3
20260503181553 6 309 12.9 29.0 0.00 0.05 0.03 53 1010.2
20260503180057 6 319 12.9 20.9 0.00 0.05 0.03 58 1010.2
20260503174553 5 350 11.3 32.2 0.00 0.05 0.03 62 1010.4
20260503173048 5 244 17.7 30.6 0.00 0.05 0.03 62 1010.4
20260503171549 6 5 8.0 27.4 0.00 0.05 0.03 56 1010.3